Weather Roundup
Issued by NWS Springfield, MO

Home | Current Version | Previous Version | Text Only | Print | Product List | Glossary On
Versions: 1 2 3 4 5 6 7 8 9 10 11 12 13 14 15 16 17 18 19 20 21 22 23 24 25 26 27 28 29 30 31 32 33 34 35 36 37 38 39 40 41 42 43 44 45 46 47 48 49 50
000
NZUS99 KSGF 300707
HRRSGF

HOURLY WEATHER
NATIONAL WEATHER SERVICE SPRINGFIELD MO
100 AM CST FRI JAN 30 2015

......SGF CWA......

CITY           SKY/WX    TMP DP  RH WIND       PRES   REMARKS
SPRINGFIELD    CLEAR     25  21  85 N8        30.48S WCI  16
JOPLIN         CLEAR     28  25  88 CALM      30.53S
WEST PLAINS    CLEAR     32  23  69 NW5       30.44S WCI  27
ROLLA          MOCLDY    32  23  69 N12       30.44S WCI  23
OSAGE BEACH    PTCLDY    32  21  64 N6        30.50R WCI  26
BRANSON        CLEAR     30  25  80 NW5       30.49R WCI  25

......SURROUNDING SGF CWA......

CITY           SKY/WX    TMP DP  RH WIND       PRES   REMARKS
CHANUTE        CLEAR     29  25  85 N3        30.54R
PARSONS        CLEAR     25  22  88 CALM      30.56R
COFFEYVILLE    CLEAR     28  25  88 N3        30.55R
EMPORIA        CLEAR     25  22  88 NW5       30.54S WCI  19
GROVE OK       CLEAR     32  28  86 CALM      30.54S
ROGERS AR      CLEAR     31  26  82 NW3       30.50S
SILOAM SPRINGS CLEAR     30  19  64 NE7       30.52R WCI  23
HARRISON AR    FAIR      31  26  82 NW7       30.47S WCI  24
NEAR YELLVILLE CLEAR     34  25  69 NW7       30.48R WCI  28

......KANSAS AND MISSOURI......

CITY           SKY/WX    TMP DP  RH WIND       PRES   REMARKS
KANSAS CTY INT CLEAR     26  21  81 N8        30.51F WCI  18
DOWNTOWN KC    CLEAR     30  23  75 N5        30.53F WCI  25
COLUMBIA       CLEAR     29  22  75 N13       30.49R WCI  19
SEDALIA        CLEAR     30  22  72 N6        30.51S WCI  24
ST JOSEPH      CLEAR     20  18  92 CALM      30.54S
ST LOUIS       MOCLDY    35  23  61 NW10      30.45R WCI  27
SPIRIT OF STL  CLOUDY    34  22  61 NW16G25   30.46R WCI  24
KIRKSVILLE     MOCLDY    27  21  78 NW8G18    30.50S WCI  19
WICHITA        PTCLDY    26  20  77 W3        30.52F
TOPEKA         CLEAR     23  20  88 CALM      30.55S
OLATHE         CLEAR     28  23  81 N3        30.51S

......TENNESSEE......

CITY           SKY/WX    TMP DP  RH WIND       PRES   REMARKS
MEMPHIS        MOCLDY    42  28  57 N8        30.42R
NASHVILLE      CLOUDY    40  30  67 NW13G18   30.34S WCI  32

......ARKANSAS.......

CITY           SKY/WX    TMP DP  RH WIND       PRES   REMARKS
FAYETTEVILLE   CLEAR     32  26  78 CALM      30.50R
FT SMITH       PTCLDY    39  28  64 NW6       30.50S WCI  35
LITTLE ROCK    CLEAR     38  29  70 N9        30.47S WCI  31

......OKLAHOMA.......

CITY           SKY/WX    TMP DP  RH WIND       PRES   REMARKS
TULSA          MOCLDY    33  27  78 NW6       30.53F WCI  28
PONCA CITY     PTCLDY    24  20  84 CALM      30.54F
MCALESTER      CLOUDY    42  30  62 NE8       30.51S
OKLAHOMA CITY  CLOUDY    42  26  53 NE12      30.51S

......IOWA............

CITY           SKY/WX    TMP DP  RH WIND       PRES   REMARKS
DES MOINES     PTCLDY    24  17  74 N10       30.52F WCI  14
QUAD CITIES    CLEAR     26  15  63 NW14      30.45R WCI  14

......ILLINOIS........

CITY           SKY/WX    TMP DP  RH WIND       PRES   REMARKS
QUINCY         CLOUDY    29  20  69 NW14      30.48R WCI  18
CHICAGO        CLOUDY    28  14  55 N16       30.34R WCI  16



USA.gov is the U.S. government's official web portal to all federal, state and local government web resources and services.